Find Starlink 1067

NORAD ID: 44771 Int'l Des: 2019-074 Owner: SPXS Country: US Constellation: starlink operational
LEOCIRCULAR

Live Position

Loading 3D Globe...

About Starlink 1067

Description loading...

Upcoming Passes

Passes for default location (London). Set your location on the main map for personalized predictions.

Altitude History

Loading altitude history...

Two-Line Element Set

1 44771U 19074BL 26104.80517963 .00030270 00000-0 30893-3 0 9994
2 44771 53.0478 27.9997 0006250 114.3672 245.7996 15.64816802354153
Epoch: Apr 14, 2026 • Age: 6 hours

Current Status

Altitude 376.0 km
Velocity 7.69 km/s
Sub-Earth Point 46.52°N, 150.45°W
Launch Date Nov 11, 2019
Age 6.4 years
Type internet

Technical Details

Classification Payload
Mass 260.00 kg
Dry Mass 248.00 kg
Total Mass 260.00 kg
Length 0.20 m
Diameter 2.80 m
Span 9.00 m
Shape Box + pan
Manufacturer SPXS
Bus Type Starlink
Phase Status In Orbit
Owner/State SPXS/US

Most Searched